Grand Junction, CO

9:30 PM MST on November 11, 2019 (GMT -0700)
Walker

Weather History for KGJT - September, 2019

Change the Weather History Date:

Thursday, September 19, 2019

  Actual Average Record
Temperature  
Mean Temperature 74 °F 65 °F  
Max Temperature 88 °F 79 °F 94 °F (1935)
Min Temperature 60 °F 51 °F 30 °F (1971)
Degree Days  
Heating Degree Days 0 3  
Month to date heating degree days 10 24  
Since 1 July heating degree days 10 27  
Cooling Degree Days 9 2  
Month to date cooling degree days 143 88  
Year to date cooling degree days 1264 1107  
Growing Degree Days 24 (Base 50)    
Moisture  
Dew Point 37 °F    
Average Humidity 29    
Maximum Humidity 42    
Minimum Humidity 16    
Precipitation  
Precipitation 0.00 in 0.04 in 0.76 in (1950)
Month to date precipitation 0.24 0.74  
Year to date precipitation 7.10 6.59  
Snow  
Snow 0.00 in 0.00 in 0.00 in (2018)
Month to date snowfall 0.0 0.0  
Since 1 July snowfall 0.0 0.0  
Since 1 September snowfall 0.0 0.0  
Snow Depth 0.00 in    
Sea Level Pressure  
Sea Level Pressure 29.69 in    
Wind  
Wind Speed 14 mph (SSE)    
Max Wind Speed 28 mph    
Max Gust Speed 39 mph    
Visibility 10 miles    
Events      
T = Trace of Precipitation, MM = Missing Value Source: NWS Daily Summary

Daily Weather History Graph

Daily Weather History Graph

Search for Another Location

Airport or City:

Astronomy

Sep. 19, 2019 Rise Set
Actual Time 6:58 AM MDT 7:16 PM MDT
Civil Twilight 6:32 AM MDT 7:42 PM MDT
Nautical Twilight 6:00 AM MDT 8:14 PM MDT
Astronomical Twilight 5:28 AM MDT 8:46 PM MDT
Moon 10:29 PM MDT (9/19) 12:03 PM MDT (9/19)
Length of Visible Light 13h 10m
Length of Day
12h 17m
Waning Gibbous, 74% of the Moon is Illuminated
Sep 19
Waning Gibbous
Sep 21
Last Quarter
Sep 28
New
Oct 5
First Quarter
Oct 13
Full

Hourly Weather History & Observations

Time (MDT) Temp. Dew Point Humidity Pressure Visibility Wind Dir Wind Speed Gust Speed Precip Events Conditions
12:53 AM 66.0 °F 36.0 °F 33% 29.77 in 10.0 mi East 10.4 mph - N/A   Partly Cloudy
1:53 AM 68.0 °F 37.0 °F 32% 29.76 in 10.0 mi East 10.4 mph - N/A   Clear
2:53 AM 66.0 °F 37.0 °F 34% 29.77 in 10.0 mi East 11.5 mph - N/A   Clear
3:53 AM 63.0 °F 37.0 °F 38% 29.78 in 10.0 mi ESE 12.7 mph - N/A   Clear
4:53 AM 64.9 °F 37.0 °F 36% 29.77 in 10.0 mi ESE 15.0 mph - N/A   Clear
5:53 AM 63.0 °F 37.0 °F 38% 29.78 in 10.0 mi ESE 12.7 mph - N/A   Clear
6:53 AM 61.0 °F 37.0 °F 41% 29.79 in 10.0 mi East 11.5 mph - N/A   Clear
7:53 AM 66.0 °F 37.9 °F 36% 29.80 in 10.0 mi SSE 11.5 mph - N/A   Clear
8:53 AM 72.0 °F 37.9 °F 29% 29.81 in 10.0 mi SSE 17.3 mph - N/A   Clear
9:53 AM 75.9 °F 39.0 °F 26% 29.80 in 10.0 mi SE 13.8 mph - N/A   Clear
10:53 AM 81.0 °F 39.9 °F 23% 29.76 in 10.0 mi South 15.0 mph 26.5 mph N/A   Clear
11:53 AM 82.9 °F 37.9 °F 20% 29.74 in 10.0 mi South 16.1 mph 32.2 mph N/A   Clear
12:53 PM 84.9 °F 36.0 °F 17% 29.69 in 10.0 mi SSW 17.3 mph 28.8 mph N/A   Clear
1:53 PM 86.0 °F 35.1 °F 16% 29.66 in 10.0 mi South 18.4 mph 32.2 mph N/A   Scattered Clouds
2:53 PM 87.1 °F 35.1 °F 16% 29.64 in 10.0 mi SSW 20.7 mph 38.0 mph N/A   Clear
3:53 PM 86.0 °F 35.1 °F 16% 29.61 in 10.0 mi SSW 19.6 mph 34.5 mph N/A   Clear
4:53 PM 84.9 °F 36.0 °F 17% 29.59 in 10.0 mi SSW 19.6 mph 26.5 mph N/A   Scattered Clouds
5:53 PM 84.9 °F 37.9 °F 19% 29.57 in 10.0 mi South 16.1 mph - N/A   Partly Cloudy
6:53 PM 82.9 °F 37.0 °F 19% 29.57 in 10.0 mi South 15.0 mph 29.9 mph N/A   Clear
7:53 PM 79.0 °F 37.9 °F 23% 29.56 in 10.0 mi SSE 9.2 mph - N/A   Clear
8:53 PM 73.0 °F 37.0 °F 27% 29.57 in 10.0 mi East 4.6 mph - N/A   Clear
9:53 PM 70.0 °F 37.0 °F 30% 29.58 in 10.0 mi SE 8.1 mph - N/A   Clear
10:53 PM 73.9 °F 39.0 °F 28% 29.57 in 10.0 mi SE 13.8 mph - N/A   Clear
11:53 PM 72.0 °F 39.9 °F 31% 29.59 in 10.0 mi ESE 13.8 mph - N/A   Clear